Temp
62 62 62 62 62 62 62 63 63 63 63 63 63 62 62 62 64 76 87 93 92 80 83 96 96 96 98 96 98 98 88 85 84 83 86 92 88 92 94 87 88 91 91 92 92
62 61 61 61 62 62 62 62 62 63 62 62 62 62 62 62 80 89 92 83 81 80 96 93 92 95 94 95 96 93 88 87 93 93 91 91 91 90 87 86 86 86 91 92 91
61 61 61 61 61 61 62 62 62 62 62 62 62 62 62 67 84 94 80 81 80 82 102 101 101 96 93 98 96 95 88 93 93 95 96 92 90 93 89 84 88 85 87 89 89
60 60 60 60 61 61 61 61 61 61 61 61 62 62 63 77 78 96 81 80 80 94 99 98 97 92 91 90 98 90 95 96 97 95 95 92 96 90 90 90 95 94 91 89 88
60 60 60 60 60 60 61 61 60 60 60 61 62 63 72 82 89 99 82 83 91 94 95 94 92 93 90 95 95 91 95 97 98 96 97 97 92 90 90 93 96 94 90 89 90
59 59 59 59 60 60 60 60 59 59 60 61 62 63 77 78 101 99 97 94 97 94 96 97 95 99 95 94 93 96 95 96 96 95 95 92 91 91 92 95 92 90 89 91 90
59 59 59 59 59 60 59 59 58 59 60 62 63 71 79 86 100 100 98 98 99 98 95 100 102 97 98 93 99 95 89 90 93 94 91 95 84 85 94 93 89 89 90 90 91
58 59 58 58 59 58 58 57 58 60 61 63 64 76 81 98 100 97 99 98 98 100 99 102 103 98 97 99 94 91 92 85 91 92 91 91 81 89 93 91 88 89 89 89 90
58 58 58 58 58 57 56 56 59 63 63 65 73 78 83 86 91 100 101 95 96 97 97 101 99 94 95 89 87 90 83 85 84 92 88 88 85 91 93 92 89 88 89 89 89
58 58 57 57 57 56 56 57 62 64 69 75 78 75 87 89 96 96 100 99 93 93 90 91 91 88 89 88 77 81 83 87 84 87 89 86 87 89 92 92 90 89 89 89 90
57 57 57 57 56 55 60 80 76 75 75 83 88 87 89 96 97 95 98 95 95 91 83 89 82 80 86 90 91 90 87 85 90 92 88 87 87 88 89 91 90 89 89 89 90
57 57 56 56 55 55 65 80 74 74 72 87 87 88 93 95 84 93 99 89 87 81 87 84 78 88 92 91 89 89 86 86 91 90 89 88 86 90 91 89 91 90 90 90 92
57 56 56 55 54 65 73 77 81 81 73 83 87 85 88 90 83 87 94 90 85 82 83 80 85 90 88 87 85 87 85 86 86 87 89 88 83 86 92 92 92 93 94 94 92
56 56 55 54 63 72 77 80 81 79 70 79 80 85 85 88 80 93 98 91 86 82 84 83 91 86 84 83 88 82 92 90 87 83 76 87 74 85 91 89 90 91 92 94 93
56 56 54 53 64 71 77 81 81 78 58 80 82 94 90 84 86 86 97 92 82 83 85 80 83 82 80 84 90 84 94 89 88 84 83 81 77 83 89 87 90 92 93 94 95
56 55 54 66 67 72 77 79 77 66 57 76 83 80 80 84 85 85 86 94 92 85 85 85 91 89 87 90 91 92 89 89 88 85 73 81 79 80 86 86 92 95 95 94 96
54 54 55 66 72 76 77 77 65 61 76 74 77 83 82 81 81 82 79 79 77 71 72 80 83 88 90 85 90 88 83 71 68 70 70 83 79 81 91 95 96 98 97 96 97
53 52 62 68 73 71 71 69 57 69 72 79 79 81 76 81 80 81 79 76 82 81 78 71 68 82 88 86 83 83 84 74 61 67 72 82 73 82 94 98 100 101 101 99 98
52 69 69 74 70 70 68 60 64 70 77 76 79 74 76 80 79 80 79 79 83 84 74 74 72 87 88 89 90 83 78 90 80 81 75 80 81 90 95 94 97 98 98 98 98
58 63 68 73 71 68 64 58 71 77 78 78 70 78 72 77 75 77 78 83 82 87 89 81 70 84 86 90 90 87 90 77 80 65 63 74 77 79 85 90 96 95 97 98 98
61 59 69 73 70 64 58 65 71 79 78 74 73 74 75 75 76 77 77 82 86 86 87 85 78 78 83 80 80 82 80 82 84 79 69 67 74 90 88 92 94 98 98 101 99
59 55 70 72 60 66 63 69 62 74 79 76 77 76 75 76 74 74 74 80 86 87 80 85 81 71 76 88 90 88 82 83 74 69 78 76 78 97 96 96 98 99 102 104 102
55 59 75 68 54 61 66 66 69 69 72 74 73 76 78 74 69 74 77 84 85 83 81 85 76 68 71 81 85 81 85 85 85 83 74 71 75 96 96 95 96 96 99 100 98
55 53 64 63 65 57 58 57 60 71 70 75 74 77 74 71 76 71 74 81 84 84 73 79 79 72 69 72 81 75 79 83 83 76 75 77 81 88 91 92 96 98 99 99 94
56 55 55 53 58 55 55 56 55 59 68 73 69 71 71 66 70 70 75 79 81 76 80 81 70 76 78 81 82 81 80 80 78 79 74 80 81 87 90 93 95 99 100 98 93
47 50 54 51 53 52 52 53 54 59 63 62 64 69 72 67 70 69 74 74 74 81 79 82 70 75 73 80 80 77 81 81 81 81 81 82 81 94 96 96 95 97 98 97 93
56 57 49 48 49 49 52 55 53 56 60 64 63 62 63 70 75 78 80 80 80 77 75 75 73 70 65 77 77 70 77 81 82 84 83 77 84 92 92 93 94 97 98 97 95
MSLP
1018.53 1018.06 1017.66 1017.22 1016.69 1016.16 1015.66 1015.14 1014.56 1013.98 1013.40 1012.95 1012.53 1012.20 1011.76 1011.18 1010.11 1009.90 1007.49 1005.97 1006.04 1006.87 1007.17 1006.73 1006.53 1006.08 1005.76 1004.85 1004.58 1003.93 1001.98 1001.33 1001.84 1002.16 1003.15 1004.62 1005.12 1006.25 1006.86 1007.78 1008.43 1008.72 1008.80 1010.07 1011.82
1018.68 1018.15 1017.65 1017.18 1016.62 1016.12 1015.63 1015.14 1014.58 1014.03 1013.40 1012.92 1012.54 1012.04 1011.70 1011.22 1009.31 1006.97 1005.42 1005.59 1006.24 1006.40 1006.15 1005.84 1005.53 1005.54 1004.68 1004.05 1003.88 1003.16 1001.24 1001.13 1001.85 1002.10 1002.62 1004.08 1004.70 1005.78 1006.71 1007.40 1008.08 1008.95 1009.54 1010.59 1011.87
1018.73 1018.30 1017.77 1017.24 1016.67 1016.01 1015.46 1015.00 1014.52 1013.96 1013.50 1012.91 1012.59 1012.13 1011.64 1011.22 1008.26 1004.73 1005.40 1005.43 1006.12 1006.42 1005.24 1005.12 1004.74 1004.79 1003.76 1003.24 1002.80 1002.08 1001.40 1001.32 1001.80 1002.20 1002.38 1003.58 1004.49 1005.37 1005.84 1006.62 1007.31 1008.40 1009.63 1010.78 1011.64
1018.54 1018.05 1017.59 1017.11 1016.61 1015.96 1015.29 1014.69 1014.26 1013.76 1013.29 1012.87 1012.44 1012.09 1011.58 1010.38 1006.49 1004.81 1005.61 1005.71 1005.74 1005.87 1005.27 1004.64 1004.31 1003.87 1003.09 1002.33 1002.00 1001.76 1001.39 1001.48 1001.40 1002.18 1002.42 1002.95 1003.99 1004.86 1005.65 1005.93 1006.92 1008.02 1009.42 1010.51 1011.26
1018.54 1017.98 1017.37 1016.82 1016.26 1015.69 1015.05 1014.42 1013.86 1013.37 1012.85 1012.61 1012.19 1011.91 1011.15 1008.41 1005.07 1004.35 1005.38 1005.68 1005.85 1005.58 1004.80 1004.19 1003.71 1003.14 1002.18 1001.54 1001.52 1001.46 1001.03 1001.17 1001.22 1001.99 1002.34 1002.95 1003.76 1004.53 1005.50 1006.49 1007.03 1008.05 1009.36 1010.16 1010.83
1018.67 1017.99 1017.29 1016.60 1015.88 1015.13 1014.64 1014.14 1013.41 1012.88 1012.30 1012.07 1011.85 1011.73 1010.03 1006.36 1003.70 1004.23 1004.65 1004.95 1004.63 1004.84 1004.11 1003.83 1003.01 1002.64 1001.78 1001.32 1001.10 1000.74 1001.00 1000.96 1001.16 1001.75 1002.49 1002.95 1003.78 1004.76 1005.29 1006.31 1007.12 1008.21 1009.03 1009.78 1010.34
1018.77 1018.08 1017.29 1016.55 1015.70 1014.76 1014.05 1013.54 1012.98 1012.22 1011.67 1011.31 1011.30 1010.80 1008.28 1004.63 1003.69 1004.10 1004.27 1003.94 1003.96 1003.89 1003.31 1003.14 1002.93 1002.48 1001.77 1001.11 1001.05 1000.97 1000.88 1001.32 1001.27 1001.88 1002.48 1002.89 1003.87 1004.29 1004.90 1006.19 1007.02 1007.89 1008.66 1009.37 1009.96
1018.53 1017.87 1017.18 1016.50 1015.61 1014.66 1013.72 1012.97 1012.23 1011.41 1010.78 1010.63 1010.86 1009.73 1005.83 1003.51 1003.66 1003.72 1003.62 1003.50 1003.77 1003.63 1003.39 1003.08 1003.12 1002.48 1001.49 1000.89 1000.87 1000.65 1000.32 1000.04 1001.12 1001.91 1002.55 1002.90 1002.13 1003.71 1004.99 1005.77 1006.56 1007.43 1008.21 1008.97 1009.54
1018.56 1017.76 1016.84 1016.07 1015.14 1014.29 1013.33 1012.33 1011.48 1010.87 1010.68 1010.66 1009.95 1008.28 1003.98 1003.82 1003.30 1002.41 1002.52 1002.44 1003.10 1003.32 1003.46 1003.13 1003.11 1002.24 1001.64 1000.77 1000.00 999.63 998.89 999.21 1000.70 1001.66 1002.32 1002.77 1001.71 1003.15 1004.57 1005.18 1005.96 1007.02 1007.75 1008.49 1009.19
1018.44 1017.68 1016.71 1015.86 1014.77 1013.75 1012.67 1011.44 1011.15 1010.87 1010.59 1009.99 1009.00 1007.39 1003.53 1001.94 1002.02 1002.16 1002.28 1002.19 1002.37 1002.76 1003.00 1002.86 1002.60 1001.54 1000.83 999.75 998.28 998.28 998.59 998.48 999.28 1001.03 1001.66 1002.02 1001.91 1003.08 1004.05 1004.49 1005.18 1006.35 1007.15 1007.81 1008.28
1018.02 1017.28 1016.44 1015.68 1014.56 1013.61 1012.33 1009.93 1010.35 1009.59 1008.43 1005.86 1004.16 1002.78 1002.05 1001.78 1002.11 1001.55 1001.87 1001.95 1001.69 1001.89 1001.34 1001.60 1001.21 999.74 999.37 999.04 998.51 997.91 998.06 998.05 998.59 999.79 1000.81 1000.90 1001.49 1002.25 1003.60 1004.09 1004.45 1005.37 1006.25 1006.83 1007.26
1017.83 1017.19 1016.19 1015.14 1014.03 1013.11 1012.27 1009.65 1009.84 1009.90 1006.84 1004.10 1003.12 1002.14 1001.80 1001.66 1001.46 1000.84 1001.38 1001.11 1000.86 1000.45 1000.50 1000.78 999.62 999.56 999.49 999.14 998.64 997.87 997.64 997.65 998.14 999.74 1000.30 1000.11 1000.67 1001.37 1002.21 1003.14 1003.64 1004.31 1005.12 1005.84 1006.43
1017.56 1017.03 1016.17 1014.78 1013.57 1012.31 1011.15 1009.93 1009.99 1009.52 1006.83 1002.21 1001.52 1000.98 1000.74 1001.13 1000.49 999.90 1000.44 1000.12 999.91 999.74 999.50 999.08 998.90 999.34 999.08 998.66 998.34 997.72 997.25 997.22 997.56 999.41 999.98 999.71 999.92 1000.26 1000.83 1001.90 1002.75 1003.39 1003.95 1004.66 1005.28
1017.43 1016.80 1016.25 1015.06 1013.02 1012.05 1010.26 1010.14 1010.05 1009.75 1005.81 1001.00 1000.41 999.74 1000.38 1000.07 999.80 999.44 999.08 999.62 999.30 998.77 998.92 998.92 998.51 998.65 998.79 998.39 997.96 997.12 997.26 997.36 997.49 998.49 998.66 999.54 998.42 998.44 998.99 1000.18 1001.22 1002.14 1002.77 1003.32 1004.08
1017.44 1016.43 1016.21 1016.29 1014.28 1011.69 1010.33 1010.29 1010.14 1009.18 1004.00 999.94 999.18 999.16 999.32 999.16 998.39 998.40 998.59 998.82 998.27 998.27 998.44 997.82 998.01 998.26 998.05 997.65 997.68 996.97 996.99 997.54 997.58 997.75 998.21 998.18 998.54 997.57 998.16 998.54 999.15 1000.05 1000.98 1001.92 1002.76
1017.14 1016.42 1015.93 1013.78 1013.56 1011.53 1010.96 1010.52 1009.57 1006.87 1001.42 998.83 998.35 998.25 998.36 998.18 997.85 998.46 998.56 998.62 998.36 998.10 998.07 997.71 998.03 997.85 997.59 997.61 997.55 997.62 997.22 997.10 997.49 997.53 996.98 997.09 997.54 996.80 996.68 997.37 997.41 998.29 999.38 1000.60 1001.65
1016.43 1015.71 1015.27 1014.00 1011.19 1011.21 1010.86 1009.25 1006.98 1002.94 999.96 997.91 997.37 997.27 996.86 996.67 997.02 997.44 997.78 997.62 997.20 997.17 997.05 997.54 997.03 997.35 997.11 996.99 997.22 997.24 996.98 996.80 997.06 996.51 995.89 996.70 996.61 996.31 995.93 996.04 996.42 996.47 997.54 999.13 1000.36
1015.58 1014.43 1012.63 1012.19 1011.54 1011.48 1010.67 1008.15 1003.65 999.84 998.57 997.68 997.17 996.74 996.41 996.05 996.10 996.26 996.62 996.64 996.85 996.55 996.04 996.26 996.22 996.31 996.38 995.81 995.65 996.09 995.94 995.14 995.14 995.38 995.82 996.46 995.56 995.30 995.94 995.92 995.83 995.94 996.27 997.70 999.00
1015.20 1012.31 1011.20 1010.65 1011.32 1011.08 1009.17 1005.08 1000.69 999.25 998.38 997.44 996.83 996.18 995.70 995.71 995.85 995.55 995.46 995.29 995.39 995.73 995.44 994.94 995.11 995.63 995.77 995.95 995.37 995.19 995.13 995.40 994.89 995.04 994.97 994.76 995.54 995.69 995.24 995.26 995.18 995.17 995.77 996.41 997.44
1014.88 1012.37 1010.19 1010.44 1010.51 1010.09 1007.33 1002.53 999.91 999.32 998.18 997.48 996.05 995.12 994.68 994.66 995.24 994.88 994.38 994.29 994.26 994.86 995.19 994.90 994.95 994.97 995.14 995.73 995.01 994.09 995.17 995.16 994.39 993.86 993.76 994.24 993.88 993.76 994.17 994.04 993.95 994.45 994.81 995.33 996.43
1014.20 1011.57 1009.94 1010.30 1010.15 1008.27 1003.96 1001.24 1000.23 999.43 999.15 997.77 996.34 995.37 995.00 994.59 994.93 994.10 993.72 994.02 993.88 993.99 994.97 994.96 995.28 994.32 995.00 994.32 993.72 994.19 993.84 994.04 994.26 994.13 993.37 993.31 992.88 993.34 993.77 993.73 993.42 993.24 993.96 994.27 995.31
1014.01 1011.01 1010.01 1010.17 1008.43 1005.37 1002.86 1001.12 1000.67 999.42 998.95 998.23 997.10 995.93 995.38 995.19 995.00 994.69 994.20 994.01 994.09 993.97 994.09 994.66 994.54 994.31 993.72 993.54 993.93 993.51 993.76 993.70 993.09 993.50 993.15 992.95 991.85 992.27 992.54 993.13 993.09 992.89 992.78 993.38 994.34
1013.46 1010.94 1009.32 1009.85 1007.04 1004.54 1002.99 1001.94 1000.98 1000.40 998.48 998.01 996.96 996.58 996.23 995.54 995.39 994.91 994.48 994.63 994.83 994.49 993.74 994.08 994.06 993.87 993.75 993.58 993.57 992.97 993.02 993.27 993.42 993.37 991.87 992.23 991.97 992.35 992.43 992.81 992.81 992.91 992.92 993.48 994.35
1013.94 1010.40 1008.22 1008.59 1007.36 1006.35 1004.18 1003.05 1001.58 1000.68 999.32 997.92 996.98 996.56 996.40 995.76 995.47 995.13 994.69 994.67 994.86 994.63 994.53 994.67 993.72 993.31 992.26 992.17 992.31 992.64 992.86 992.69 992.56 991.76 991.89 990.96 991.44 991.63 991.78 992.25 992.27 992.19 992.52 993.23 994.29
1013.93 1010.54 1010.44 1008.34 1006.76 1006.78 1006.14 1004.69 1003.16 1001.33 1000.11 998.66 997.89 996.64 996.03 995.74 995.42 995.00 995.20 994.53 994.89 994.87 994.95 994.80 993.90 993.17 992.96 992.27 991.73 991.54 991.65 992.25 991.79 991.55 991.05 991.12 990.88 991.20 991.39 991.64 991.98 991.91 991.90 992.69 993.95
1014.37 1012.62 1011.41 1010.14 1009.08 1007.90 1006.49 1005.27 1003.82 1002.50 1001.35 999.87 998.62 997.40 996.86 996.04 995.64 995.04 995.14 994.90 994.60 994.35 994.30 994.37 993.95 993.59 992.63 992.34 991.93 991.23 990.85 991.03 990.96 991.14 990.84 991.15 990.30 990.72 990.91 991.54 991.50 991.47 991.51 992.08 993.19
1014.23 1013.82 1013.41 1010.78 1009.23 1008.16 1006.53 1005.38 1004.75 1004.39 1003.24 1001.75 1000.51 999.68 998.42 997.30 996.73 996.06 995.56 995.14 994.61 994.34 994.09 994.01 993.81 993.39 992.50 991.91 991.11 990.60 990.30 989.85 989.66 989.96 990.10 989.47 989.70 990.66 990.19 990.32 990.49 990.71 991.05 991.41 992.16
Wind_Speed
21 21 21 21 21 21 20 20 20 20 20 20 20 18 18 18 18 8 10 4 8 21 9 13 12 9 11 9 8 4 8 5 7 3 12 15 11 7 7 11 7 7 7 21 21
21 21 21 22 22 21 21 20 19 20 21 20 19 19 17 17 9 14 5 3 10 22 20 18 16 14 10 10 7 10 8 5 3 1 11 16 12 14 10 11 10 11 8 21 21
21 21 21 21 22 22 22 21 20 20 20 20 18 17 16 14 12 3 5 11 14 18 15 17 12 15 14 9 10 9 12 7 3 2 8 18 12 12 10 12 12 15 15 22 22
22 22 22 22 22 22 22 22 22 21 20 19 17 15 13 6 7 6 9 11 20 19 11 16 15 16 13 14 11 11 9 9 8 5 11 17 15 12 10 4 13 14 18 23 22
22 22 23 23 23 23 23 22 22 22 21 18 16 11 8 9 15 5 8 10 14 18 17 19 20 18 17 10 10 12 11 7 9 7 12 14 15 9 11 8 12 15 19 23 21
23 23 22 23 24 24 22 22 23 23 22 18 13 6 7 16 2 6 7 10 10 19 20 20 15 20 10 11 11 0 6 8 5 10 12 13 13 11 12 12 13 17 20 21 21
23 23 23 24 26 27 26 24 24 25 22 18 9 8 9 19 2 8 9 8 9 19 18 21 17 17 14 10 11 7 7 5 9 13 10 11 12 14 13 13 13 17 18 20 21
24 25 25 26 27 27 27 26 26 21 11 8 10 8 10 1 3 12 13 12 8 14 17 13 21 16 16 3 8 14 12 11 11 14 8 16 14 16 15 16 14 16 17 19 21
23 25 26 27 28 27 27 28 18 3 3 10 9 8 8 7 9 8 11 10 10 11 11 11 15 16 17 15 15 14 14 13 12 14 8 15 4 15 15 16 15 15 18 19 18
22 23 25 26 29 29 30 24 2 7 7 6 6 7 7 6 9 2 7 9 11 15 12 16 13 15 15 18 17 18 18 14 13 16 12 16 6 5 14 16 16 16 17 19 20
23 24 25 26 28 27 19 4 7 9 10 11 3 13 4 7 6 6 9 14 11 18 14 19 19 21 23 22 20 17 15 14 15 15 17 15 13 12 10 15 16 16 18 19 20
24 25 27 28 28 27 10 7 5 6 13 16 23 24 19 10 9 15 12 16 15 18 18 17 22 21 22 21 23 20 18 17 13 8 15 13 14 13 14 17 18 19 19 19 19
24 24 25 29 31 12 6 3 6 9 10 9 11 11 10 19 18 19 21 19 19 21 21 18 18 21 20 21 24 22 21 18 15 12 15 11 15 17 15 16 17 19 19 21 21
24 24 23 29 11 10 3 1 9 6 8 6 9 8 9 7 10 19 25 21 17 23 21 21 20 23 19 24 23 24 23 19 16 14 13 16 13 14 17 17 20 21 21 21 22
24 24 20 13 13 7 5 8 10 6 8 8 9 9 9 10 4 10 20 24 22 19 21 19 22 21 23 23 25 24 21 18 19 17 19 15 11 12 3 14 20 24 24 24 23
23 25 21 7 8 12 12 9 5 9 10 6 8 12 11 13 6 6 17 22 17 20 17 23 15 20 23 22 22 21 19 16 17 16 19 22 15 15 12 15 17 18 23 24 23
25 26 21 8 5 5 8 7 9 13 4 10 10 13 10 8 12 13 20 24 20 21 20 20 21 15 18 23 24 22 19 12 16 16 15 18 20 15 12 9 15 11 19 24 23
29 32 3 9 6 6 7 9 16 5 19 3 5 11 13 9 9 16 19 22 25 22 15 18 22 26 16 27 25 27 25 15 24 16 14 21 15 17 18 18 21 11 12 20 24
31 8 7 3 7 7 9 17 11 16 11 16 13 14 17 13 7 13 20 22 25 24 23 20 24 23 22 18 27 26 28 24 24 20 18 16 14 23 16 16 15 14 14 18 23
11 11 7 2 8 8 11 24 21 15 10 12 19 14 17 18 13 12 17 18 22 26 21 12 13 23 23 20 26 27 21 26 21 26 22 20 19 12 19 17 17 13 16 18 20
9 7 8 3 8 8 16 22 23 22 18 16 20 17 13 12 15 12 8 9 16 21 22 21 12 14 22 27 25 21 19 22 22 22 19 18 18 15 15 14 13 11 15 16 18
6 7 6 4 9 10 15 17 8 18 23 22 16 19 18 14 15 13 11 9 4 14 25 22 14 16 18 22 26 24 25 24 17 25 19 22 17 18 18 18 21 19 10 10 14
6 7 1 6 9 13 14 14 14 23 22 24 27 20 18 18 20 17 15 12 11 9 15 20 18 14 19 19 18 22 28 28 25 22 25 21 17 17 12 11 11 12 12 7 9
7 6 6 8 11 12 16 13 20 18 20 23 21 22 23 23 18 11 12 12 11 16 4 7 18 24 17 21 20 25 24 26 27 23 20 26 20 21 21 17 16 13 14 12 9
6 5 3 7 6 6 13 15 16 15 15 16 22 21 20 21 21 21 17 12 9 9 7 16 15 15 21 21 19 23 28 30 30 28 29 20 28 23 23 18 18 19 18 11 12
6 6 4 10 13 15 12 14 15 15 12 16 18 18 22 20 19 18 19 17 17 14 18 15 14 16 22 21 22 27 27 29 30 30 29 30 32 24 24 24 23 22 18 16 15
3 5 6 8 8 8 11 11 7 11 11 16 15 12 12 9 9 10 11 13 13 15 15 16 13 12 18 22 17 22 27 29 28 31 28 29 24 26 30 22 24 24 20 17 17
Wind_Direction
355 352 350 345 341 338 336 335 332 330 329 329 331 332 329 328 302 201 262 253 177 165 204 170 194 191 200 226 242 279 254 151 103 275 127 151 154 157 108 138 179 149 153 139 147
354 350 347 343 339 336 333 330 328 326 324 325 327 327 327 329 291 277 290 185 142 168 177 180 185 182 209 218 207 235 272 87 79 27 153 162 167 158 170 158 172 156 117 141 156
352 348 345 341 338 333 330 327 325 322 320 318 321 322 321 313 278 194 60 133 163 188 195 199 195 201 231 225 207 208 261 79 226 288 181 164 168 166 175 178 176 171 155 156 164
348 345 342 339 335 330 326 323 321 318 315 313 313 315 315 271 289 86 133 158 163 192 224 205 198 209 227 221 218 254 240 276 292 156 185 170 159 174 173 89 163 166 163 164 172
344 342 339 336 332 327 323 320 316 315 310 308 306 305 272 244 256 164 162 187 180 197 209 204 208 214 234 233 225 243 270 276 263 195 186 169 170 160 175 129 149 157 166 173 177
343 339 335 332 329 324 321 319 314 311 305 300 291 266 246 265 0 156 156 159 196 202 208 212 218 217 257 240 230 32 268 277 231 173 172 182 166 170 174 152 162 166 173 180 183
342 339 335 332 328 322 320 318 314 307 298 289 249 223 247 256 243 182 194 230 216 206 211 215 223 205 221 230 223 214 227 199 176 162 167 186 173 210 146 167 166 181 182 183 188
340 337 334 331 325 322 319 316 314 305 292 245 190 212 260 135 295 232 233 228 215 216 227 229 217 247 242 217 193 215 230 198 159 170 153 199 174 194 160 176 179 182 183 186 191
339 336 331 329 325 322 319 315 311 329 129 152 193 244 263 120 221 208 199 202 187 181 206 193 204 227 208 219 211 208 225 211 157 195 159 205 212 167 176 186 179 184 184 189 192
336 335 330 328 324 324 322 304 158 168 184 221 267 240 240 214 150 221 183 175 168 173 162 192 202 205 223 212 214 206 228 183 187 189 193 195 189 146 186 199 192 188 191 194 197
334 334 330 328 323 322 322 227 216 187 204 259 297 259 148 150 196 211 177 182 174 180 189 190 203 208 206 214 230 224 208 210 209 158 203 207 218 173 192 211 209 197 199 200 205
333 334 330 326 323 318 281 309 45 350 294 257 251 262 258 271 258 217 189 190 192 198 201 182 215 210 223 216 229 240 223 219 181 163 219 208 229 227 197 213 213 207 205 209 207
330 333 331 326 320 293 333 81 18 320 264 269 231 249 229 205 222 228 194 211 198 207 197 208 204 218 213 219 223 224 230 219 203 181 227 246 229 233 216 216 214 218 212 209 211
328 331 335 332 287 345 287 142 309 315 270 196 199 187 173 180 220 225 209 206 213 213 199 221 219 205 207 226 217 225 224 235 212 191 221 204 249 228 216 211 218 211 213 213 210
326 324 331 329 305 285 22 317 311 227 279 115 148 133 158 209 27 167 202 201 210 213 204 204 210 197 216 215 218 230 222 225 245 210 239 176 242 262 203 227 219 217 210 213 210
323 320 327 294 239 263 303 301 238 230 239 183 160 182 183 207 205 130 190 213 226 215 217 230 197 221 221 216 224 226 250 221 233 231 230 233 212 236 215 231 241 222 212 209 208
319 314 307 273 264 349 300 245 224 238 101 185 195 192 205 174 195 172 186 194 201 201 202 215 202 208 216 214 210 215 209 201 216 223 240 209 230 232 256 219 245 261 205 207 204
317 311 259 248 230 245 246 222 233 236 215 128 213 192 226 184 212 192 189 201 211 211 208 207 209 209 192 217 202 214 214 220 214 219 217 231 235 231 239 259 259 230 233 197 202
313 301 266 227 215 222 222 217 221 232 232 240 210 225 224 204 257 207 212 209 206 216 225 208 227 196 213 217 220 200 219 228 244 223 243 222 209 241 248 254 244 236 215 197 203
312 303 257 207 179 204 225 238 228 256 253 237 228 217 227 206 213 203 202 215 219 211 225 219 236 224 195 212 218 231 208 220 230 238 222 236 236 218 219 228 237 212 214 208 203
283 292 63 188 196 213 231 224 232 240 251 245 234 242 228 235 229 210 229 185 216 196 217 229 220 203 209 207 208 205 229 218 235 227 244 233 232 215 240 258 268 231 217 219 202
298 283 86 206 242 226 240 243 284 251 226 244 256 258 240 229 225 221 220 224 185 227 201 214 214 234 215 213 219 211 214 215 223 225 238 250 244 221 220 232 241 248 252 223 214
287 280 128 252 257 245 244 246 249 256 235 233 231 238 237 237 238 249 233 239 260 242 225 208 226 213 230 215 200 232 224 221 228 239 227 226 230 247 193 226 250 243 261 248 235
280 290 202 205 259 282 291 290 265 251 257 253 246 230 227 229 230 242 217 220 230 233 315 305 230 219 223 223 218 210 224 238 233 232 233 244 241 226 223 232 249 252 256 257 221
252 259 41 291 264 324 301 294 288 277 258 247 242 245 222 222 220 217 236 236 216 166 209 219 241 233 234 257 243 232 218 218 235 238 241 240 236 232 243 241 245 260 261 242 226
286 311 342 291 280 275 264 259 272 275 269 263 239 226 237 234 233 230 226 233 240 231 231 217 243 249 242 241 248 253 236 230 227 234 240 241 248 248 226 237 248 249 257 244 229
265 268 264 280 258 273 267 266 282 344 285 258 299 315 293 284 307 296 289 285 273 239 229 232 223 218 239 232 244 240 243 248 236 225 232 234 236 235 242 247 235 239 241 238 228